| time (UTC) | temp F | wind direction | speed MPH | gust MPH | rain 1hr in | rain 24hr in | rain mn in | humidity % | barometer mb |
| 20260902104620 | 73 | 144 | 0.0 | 0.0 | 0.00 | 0.00 | 0.00 | 1015.2 | |
| 20260902104156 | 73 | 143 | 0.0 | 0.0 | 0.00 | 0.00 | 0.00 | 1015.2 | |
| 20260902103704 | 73 | 143 | 0.0 | 0.0 | 0.00 | 0.00 | 0.00 | 1015.2 | |
| 20260902103145 | 73 | 143 | 0.0 | 0.0 | 0.00 | 0.00 | 0.00 | 1015.0 | |
| 20260902102613 | 73 | 143 | 0.0 | 0.0 | 0.00 | 0.00 | 0.00 | 1015.0 | |
| 20260902102131 | 73 | 143 | 0.0 | 0.0 | 0.00 | 0.00 | 0.00 | 1015.0 | |
| 20260902101639 | 74 | 143 | 0.0 | 0.0 | 0.00 | 0.00 | 0.00 | 1015.1 | |
| 20260902101216 | 74 | 143 | 0.0 | 0.0 | 0.00 | 0.00 | 0.00 | 1015.1 | |
| 20260902100622 | 74 | 143 | 0.0 | 0.0 | 0.00 | 0.00 | 0.00 | 1015.1 | |
| 20260902100159 | 74 | 143 | 0.0 | 0.0 | 0.00 | 0.00 | 0.00 | 1015.2 | |
| 20260902095626 | 74 | 143 | 0.0 | 0.0 | 0.00 | 0.00 | 0.00 | 1015.0 | |
| 20260902095203 | 74 | 143 | 0.0 | 0.0 | 0.00 | 0.00 | 0.00 | 1015.1 | |
| 20260902094625 | 74 | 143 | 0.0 | 0.0 | 0.00 | 0.00 | 0.00 | 1015.2 | |
| 20260902094153 | 74 | 143 | 0.0 | 0.0 | 0.00 | 0.00 | 0.00 | 1015.2 | |
| 20260902093709 | 74 | 137 | 0.0 | 0.0 | 0.00 | 0.00 | 0.00 | 1015.2 | |
| 20260902093135 | 75 | 137 | 0.0 | 2.0 | 0.00 | 0.00 | 0.00 | 1015.3 | |
| 20260902092703 | 75 | 137 | 0.0 | 2.0 | 0.00 | 0.00 | 0.00 | 1015.3 | |
| 20260902092133 | 75 | 137 | 1.0 | 2.0 | 0.00 | 0.00 | 0.00 | 1015.3 | |
| 20260902091707 | 75 | 137 | 0.0 | 0.0 | 0.00 | 0.00 | 0.00 | 1015.3 | |
| 20260902091135 | 75 | 137 | 0.0 | 0.0 | 0.00 | 0.00 | 0.00 | 1015.2 | |
| 20260902090704 | 75 | 137 | 0.0 | 1.0 | 0.00 | 0.00 | 0.00 | 1015.3 | |
| 20260902090138 | 75 | 137 | 0.0 | 1.0 | 0.00 | 0.00 | 0.00 | 1015.3 | |
| 20260902085612 | 75 | 137 | 0.0 | 1.0 | 0.00 | 0.00 | 0.00 | 1015.3 | |
| 20260902085148 | 75 | 137 | 1.0 | 1.0 | 0.00 | 0.00 | 0.00 | 1015.3 | |
| 20260902084657 | 76 | 137 | 0.0 | 1.0 | 0.00 | 0.00 | 0.00 | 1015.3 | |
| 20260902084210 | 76 | 137 | 0.0 | 2.0 | 0.00 | 0.00 | 0.00 | 1015.3 | |
| 20260902083638 | 76 | 137 | 1.0 | 2.0 | 0.00 | 0.00 | 0.00 | 1015.3 | |
| 20260902083115 | 76 | 137 | 0.0 | 0.0 | 0.00 | 0.00 | 0.00 | 1015.3 | |
| 20260902082645 | 76 | 137 | 0.0 | 0.0 | 0.00 | 0.00 | 0.00 | 1015.3 | |
| 20260902082220 | 76 | 137 | 0.0 | 0.0 | 0.00 | 0.00 | 0.00 | 1015.3 | |
| 20260902081727 | 76 | 137 | 0.0 | 0.0 | 0.00 | 0.00 | 0.00 | 1015.3 | |
| 20260902081134 | 77 | 137 | 0.0 | 0.0 | 0.00 | 0.00 | 0.00 | 1015.4 | |
| 20260902080615 | 77 | 137 | 0.0 | 0.0 | 0.00 | 0.00 | 0.00 | 1015.5 | |
| 20260902080144 | 77 | 137 | 0.0 | 0.0 | 0.00 | 0.00 | 0.00 | 1015.6 | |
| 20260902075700 | 77 | 137 | 0.0 | 0.0 | 0.00 | 0.00 | 0.00 | 1015.6 | |
| 20260902075130 | 77 | 137 | 0.0 | 0.0 | 0.00 | 0.00 | 0.00 | 1015.5 | |
| 20260902074639 | 77 | 137 | 0.0 | 0.0 | 0.00 | 0.00 | 0.00 | 1015.5 | |
| 20260902074115 | 78 | 137 | 0.0 | 1.0 | 0.00 | 0.00 | 0.00 | 1015.5 | |
| 20260902073644 | 78 | 137 | 0.0 | 1.0 | 0.00 | 0.00 | 0.00 | 1015.4 | |
| 20260902073120 | 78 | 137 | 0.0 | 1.0 | 0.00 | 0.00 | 0.00 | 1015.4 | |
| 20260902072649 | 78 | 137 | 0.0 | 1.0 | 0.00 | 0.00 | 0.00 | 1015.4 | |
| 20260902072130 | 79 | 137 | 0.0 | 1.0 | 0.00 | 0.00 | 0.00 | 1015.3 | |
| 20260902071659 | 79 | 137 | 0.0 | 2.0 | 0.00 | 0.00 | 0.00 | 1015.3 | |
| 20260902071136 | 79 | 137 | 1.0 | 2.0 | 0.00 | 0.00 | 0.00 | 1015.3 | |
| 20260902070644 | 79 | 137 | 1.0 | 1.0 | 0.00 | 0.00 | 0.00 | 1015.3 | |
| 20260902070121 | 79 | 97 | 0.0 | 1.0 | 0.00 | 0.00 | 0.00 | 1015.3 | |
| 20260902065623 | 80 | 97 | 0.0 | 1.0 | 0.00 | 0.00 | 0.00 | 1015.3 | |
| 20260902065132 | 80 | 97 | 0.0 | 1.0 | 0.00 | 0.00 | 0.00 | 1015.3 | |
| 20260902064640 | 80 | 97 | 0.0 | 1.0 | 0.00 | 0.00 | 0.00 | 1015.4 | |
| 20260902064122 | 80 | 97 | 0.0 | 4.0 | 0.00 | 0.00 | 0.00 | 1015.4 | |
| 20260902063623 | 80 | 97 | 1.0 | 4.0 | 0.00 | 0.00 | 0.00 | 1015.4 | |
| 20260902063132 | 80 | 102 | 1.0 | 5.0 | 0.00 | 0.00 | 0.00 | 1015.3 | |
| 20260902062638 | 81 | 94 | 3.0 | 5.0 | 0.00 | 0.00 | 0.00 | 1015.4 | |
| 20260902062119 | 81 | 97 | 1.0 | 4.0 | 0.00 | 0.00 | 0.00 | 1015.3 | |
| 20260902061618 | 81 | 95 | 1.0 | 4.0 | 0.00 | 0.00 | 0.00 | 1015.3 | |
| 20260902061120 | 81 | 105 | 1.0 | 4.0 | 0.00 | 0.00 | 0.00 | 1015.3 | |
| 20260902060626 | 81 | 85 | 1.0 | 2.0 | 0.00 | 0.00 | 0.00 | 1015.3 | |
| 20260902060132 | 81 | 49 | 0.0 | 4.0 | 0.00 | 0.00 | 0.00 | 1015.2 | |
| 20260902055614 | 82 | 54 | 2.0 | 5.0 | 0.00 | 0.00 | 0.00 | 1015.2 | |
| 20260902055119 | 82 | 49 | 2.0 | 6.0 | 0.00 | 0.00 | 0.00 | 1015.2 | |
| 20260902054621 | 82 | 75 | 3.0 | 6.0 | 0.00 | 0.00 | 0.00 | 1015.2 | |
| 20260902054129 | 82 | 94 | 2.0 | 5.0 | 0.00 | 0.00 | 0.00 | 1015.1 | |
| 20260902053636 | 82 | 110 | 1.0 | 4.0 | 0.00 | 0.00 | 0.00 | 1015.0 | |
| 20260902053116 | 82 | 95 | 2.0 | 3.0 | 0.00 | 0.00 | 0.00 | 1015.0 | |
| 20260902052616 | 82 | 111 | 3.0 | 6.0 | 0.00 | 0.00 | 0.00 | 1015.2 | |
| 20260902052124 | 82 | 113 | 4.0 | 6.0 | 0.00 | 0.00 | 0.00 | 1015.1 | |
| 20260902051625 | 82 | 126 | 2.0 | 5.0 | 0.00 | 0.00 | 0.00 | 1015.0 | |
| 20260902051134 | 82 | 136 | 2.0 | 5.0 | 0.00 | 0.00 | 0.00 | 1015.0 | |
| 20260902050614 | 83 | 137 | 2.0 | 5.0 | 0.00 | 0.00 | 0.00 | 1015.1 | |
| 20260902050119 | 83 | 132 | 3.0 | 5.0 | 0.00 | 0.00 | 0.00 | 1015.0 | |
| 20260902045614 | 83 | 117 | 2.0 | 4.0 | 0.00 | 0.00 | 0.00 | 1015.0 | |
| 20260902045148 | 83 | 118 | 2.0 | 3.0 | 0.00 | 0.00 | 0.00 | 1014.9 | |
| 20260902044617 | 83 | 139 | 2.0 | 3.0 | 0.00 | 0.00 | 0.00 | 1015.0 | |
| 20260902044151 | 83 | 135 | 2.0 | 4.0 | 0.00 | 0.00 | 0.00 | 1015.0 | |
| 20260902043659 | 83 | 139 | 2.0 | 5.0 | 0.00 | 0.00 | 0.00 | 1014.9 | |
| 20260902043138 | 83 | 121 | 2.0 | 5.0 | 0.00 | 0.00 | 0.00 | 1014.9 | |
| 20260902042640 | 83 | 109 | 3.0 | 7.0 | 0.00 | 0.00 | 0.00 | 1014.9 | |
| 20260902042203 | 83 | 126 | 3.0 | 7.0 | 0.00 | 0.00 | 0.00 | 1014.9 | |
| 20260902041640 | 83 | 115 | 4.0 | 7.0 | 0.00 | 0.00 | 0.00 | 1014.8 | |
| 20260902041207 | 82 | 119 | 4.0 | 7.0 | 0.00 | 0.00 | 0.00 | 1014.8 | |
| 20260902040622 | 83 | 140 | 4.0 | 6.0 | 0.00 | 0.00 | 0.00 | 1014.8 | |
| 20260902040129 | 83 | 130 | 2.0 | 3.0 | 0.00 | 0.00 | 0.00 | 1014.8 | |
| 20260902035706 | 83 | 130 | 2.0 | 4.0 | 0.00 | 0.00 | 0.00 | 1014.8 | |
| 20260902035136 | 83 | 130 | 2.0 | 4.0 | 0.00 | 0.00 | 0.00 | 1014.7 | |
| 20260902034616 | 83 | 119 | 2.0 | 4.0 | 0.00 | 0.00 | 0.00 | 1014.7 | |
| 20260902034146 | 83 | 119 | 2.0 | 4.0 | 0.00 | 0.00 | 0.00 | 1014.7 | |
| 20260902033621 | 83 | 87 | 1.0 | 4.0 | 0.00 | 0.00 | 0.00 | 1014.6 | |
| 20260902033150 | 83 | 80 | 1.0 | 4.0 | 0.00 | 0.00 | 0.00 | 1014.6 | |
| 20260902032626 | 84 | 79 | 2.0 | 3.0 | 0.00 | 0.00 | 0.00 | 1014.5 | |
| 20260902032154 | 84 | 136 | 0.0 | 4.0 | 0.00 | 0.00 | 0.00 | 1014.4 | |
| 20260902031631 | 84 | 123 | 0.0 | 0.0 | 0.00 | 0.00 | 0.00 | 1014.4 | |
| 20260902031157 | 85 | 123 | 0.0 | 0.0 | 0.00 | 0.00 | 0.00 | 1014.4 | |
| 20260902030616 | 85 | 123 | 0.0 | 0.0 | 0.00 | 0.00 | 0.00 | 1014.3 | |
| 20260902030142 | 85 | 123 | 0.0 | 0.0 | 0.00 | 0.00 | 0.00 | 1014.2 | |
| 20260902025656 | 85 | 123 | 0.0 | 0.0 | 0.00 | 0.00 | 0.00 | 1014.1 | |
| 20260902025126 | 86 | 123 | 0.0 | 1.0 | 0.00 | 0.00 | 0.00 | 1014.0 | |
| 20260902024653 | 86 | 123 | 0.0 | 2.0 | 0.00 | 0.00 | 0.00 | 1013.9 | |
| 20260902024138 | 86 | 108 | 0.0 | 5.0 | 0.00 | 0.00 | 0.00 | 1013.8 | |
| 20260902023712 | 86 | 107 | 2.0 | 5.0 | 0.00 | 0.00 | 0.00 | 1013.7 | |
| 20260902023136 | 86 | 78 | 1.0 | 2.0 | 0.00 | 0.00 | 0.00 | 1013.7 | |
| 20260902022706 | 86 | 113 | 0.0 | 2.0 | 0.00 | 0.00 | 0.00 | 1013.6 | |
| 20260902022128 | 87 | 113 | 1.0 | 2.0 | 0.00 | 0.00 | 0.00 | 1013.5 | |
| 20260902021119 | 87 | 113 | 0.0 | 0.0 | 0.00 | 0.00 | 0.00 | 1013.2 | |
| 20260902020626 | 88 | 115 | 0.0 | 1.0 | 0.00 | 0.00 | 0.00 | 1013.2 | |
| 20260902020159 | 88 | 115 | 0.0 | 1.0 | 0.00 | 0.00 | 0.00 | 1013.1 | |
| 20260902015639 | 88 | 115 | 0.0 | 1.0 | 0.00 | 0.00 | 0.00 | 1013.1 | |
| 20260902015120 | 89 | 115 | 0.0 | 1.0 | 0.00 | 0.00 | 0.00 | 1013.0 | |
| 20260902014639 | 89 | 115 | 0.0 | 1.0 | 0.00 | 0.00 | 0.00 | 1013.0 | |
| 20260902014154 | 90 | 115 | 0.0 | 1.0 | 0.00 | 0.00 | 0.00 | 1013.0 | |
| 20260902013622 | 90 | 115 | 0.0 | 2.0 | 0.00 | 0.00 | 0.00 | 1012.9 | |
| 20260902013132 | 90 | 115 | 1.0 | 5.0 | 0.00 | 0.00 | 0.00 | 1012.8 | |
| 20260902012138 | 91 | 126 | 2.0 | 5.0 | 0.00 | 0.00 | 0.00 | 1012.8 | |
| 20260902011647 | 91 | 128 | 3.0 | 8.0 | 0.00 | 0.00 | 0.00 | 1012.7 | |
| 20260902011123 | 92 | 126 | 4.0 | 8.0 | 0.00 | 0.00 | 0.00 | 1012.7 | |
| 20260902010652 | 93 | 111 | 0.0 | 1.0 | 0.00 | 0.00 | 0.00 | 1012.6 | |
| 20260902010132 | 93 | 111 | 0.0 | 1.0 | 0.00 | 0.00 | 0.00 | 1012.5 | |
| 20260902005700 | 93 | 111 | 0.0 | 2.0 | 0.00 | 0.00 | 0.00 | 1012.5 | |
| 20260902005127 | 94 | 111 | 1.0 | 5.0 | 0.00 | 0.00 | 0.00 | 1012.5 | |
| 20260902004704 | 94 | 111 | 1.0 | 5.0 | 0.00 | 0.00 | 0.00 | 1012.4 | |
| 20260902004133 | 94 | 119 | 2.0 | 5.0 | 0.00 | 0.00 | 0.00 | 1012.5 | |
| 20260902003709 | 95 | 120 | 1.0 | 2.0 | 0.00 | 0.00 | 0.00 | 1012.5 | |
| 20260902003115 | 95 | 111 | 1.0 | 5.0 | 0.00 | 0.00 | 0.00 | 1012.6 | |
| 20260902002132 | 95 | 123 | 2.0 | 7.0 | 0.00 | 0.00 | 0.00 | 1012.5 | |
| 20260902001646 | 95 | 102 | 3.0 | 7.0 | 0.00 | 0.00 | 0.00 | 1012.6 | |
| 20260902001213 | 95 | 105 | 4.0 | 7.0 | 0.00 | 0.00 | 0.00 | 1012.5 | |
| 20260902000651 | 96 | 90 | 5.0 | 8.0 | 0.00 | 0.00 | 0.00 | 1012.5 | |
| 20260902000157 | 96 | 69 | 5.0 | 8.0 | 0.00 | 0.00 | 0.00 | 1012.5 | |
| 20260901235625 | 96 | 122 | 4.0 | 7.0 | 0.00 | 0.00 | 0.00 | 1012.5 | |
| 20260901235209 | 96 | 85 | 2.0 | 7.0 | 0.00 | 0.00 | 0.00 | 1012.5 | |
| 20260901234615 | 97 | 82 | 4.0 | 6.0 | 0.00 | 0.00 | 0.00 | 1012.5 | |
| 20260901234151 | 97 | 157 | 2.0 | 5.0 | 0.00 | 0.00 | 0.00 | 1012.6 | |
| 20260901233647 | 97 | 109 | 2.0 | 6.0 | 0.00 | 0.00 | 0.00 | 1012.5 | |
| 20260901233120 | 97 | 120 | 5.0 | 6.0 | 0.00 | 0.00 | 0.00 | 1012.5 | |
| 20260901232648 | 97 | 190 | 1.0 | 7.0 | 0.00 | 0.00 | 0.00 | 1012.4 | |
| 20260901232223 | 97 | 288 | 3.0 | 8.0 | 0.00 | 0.00 | 0.00 | 1012.5 | |
| 20260901231632 | 97 | 155 | 6.0 | 9.0 | 0.00 | 0.00 | 0.00 | 1012.5 | |
| 20260901231203 | 97 | 141 | 5.0 | 8.0 | 0.00 | 0.00 | 0.00 | 1012.5 | |
| 20260901230619 | 97 | 115 | 5.0 | 8.0 | 0.00 | 0.00 | 0.00 | 1012.5 | |
| 20260901230151 | 97 | 156 | 5.0 | 9.0 | 0.00 | 0.00 | 0.00 | 1012.5 | |
| 20260901225621 | 97 | 157 | 6.0 | 9.0 | 0.00 | 0.00 | 0.00 | 1012.5 | |
| 20260901225157 | 97 | 151 | 4.0 | 9.0 | 0.00 | 0.00 | 0.00 | 1012.6 | |
| 20260901224726 | 97 | 109 | 3.0 | 9.0 | 0.00 | 0.00 | 0.00 | 1012.5 | |
| 20260901224140 | 97 | 97 | 5.0 | 9.0 | 0.00 | 0.00 | 0.00 | 1012.5 | |
| 20260901223708 | 98 | 139 | 2.0 | 7.0 | 0.00 | 0.00 | 0.00 | 1012.6 | |
| 20260901223124 | 98 | 156 | 4.0 | 8.0 | 0.00 | 0.00 | 0.00 | 1012.6 | |
| 20260901222653 | 97 | 182 | 5.0 | 8.0 | 0.00 | 0.00 | 0.00 | 1012.5 | |
| 20260901222141 | 97 | 119 | 4.0 | 8.0 | 0.00 | 0.00 | 0.00 | 1012.5 | |
| 20260901221622 | 97 | 117 | 5.0 | 10.0 | 0.00 | 0.00 | 0.00 | 1012.6 | |
| 20260901221148 | 97 | 156 | 7.0 | 11.0 | 0.00 | 0.00 | 0.00 | 1012.6 | |
| 20260901220625 | 97 | 149 | 5.0 | 11.0 | 0.00 | 0.00 | 0.00 | 1012.6 | |
| 20260901220134 | 97 | 121 | 6.0 | 9.0 | 0.00 | 0.00 | 0.00 | 1012.7 | |
| 20260901215641 | 96 | 319 | 2.0 | 5.0 | 0.00 | 0.00 | 0.00 | 1012.6 | |
| 20260901215157 | 96 | 243 | 2.0 | 6.0 | 0.00 | 0.00 | 0.00 | 1012.7 | |
| 20260901214730 | 95 | 161 | 2.0 | 5.0 | 0.00 | 0.00 | 0.00 | 1012.8 | |
| 20260901214133 | 96 | 153 | 2.0 | 5.0 | 0.00 | 0.00 | 0.00 | 1012.8 | |
| 20260901213704 | 96 | 159 | 3.0 | 7.0 | 0.00 | 0.00 | 0.00 | 1012.9 | |
| 20260901213130 | 96 | 152 | 4.0 | 10.0 | 0.00 | 0.00 | 0.00 | 1012.9 | |
| 20260901212659 | 97 | 131 | 6.0 | 10.0 | 0.00 | 0.00 | 0.00 | 1013.0 | |
| 20260901212209 | 96 | 134 | 6.0 | 9.0 | 0.00 | 0.00 | 0.00 | 1013.0 | |
| 20260901211619 | 95 | 135 | 5.0 | 9.0 | 0.00 | 0.00 | 0.00 | 1013.0 | |
| 20260901211156 | 95 | 109 | 3.0 | 6.0 | 0.00 | 0.00 | 0.00 | 1013.1 | |
| 20260901210625 | 95 | 94 | 3.0 | 8.0 | 0.00 | 0.00 | 0.00 | 1013.2 | |
| 20260901210140 | 95 | 119 | 5.0 | 8.0 | 0.00 | 0.00 | 0.00 | 1013.2 | |
| 20260901205649 | 95 | 140 | 4.0 | 11.0 | 0.00 | 0.00 | 0.00 | 1013.3 | |
| 20260901205118 | 95 | 35 | 7.0 | 11.0 | 0.00 | 0.00 | 0.00 | 1013.4 | |
| 20260901204632 | 95 | 44 | 5.0 | 9.0 | 0.00 | 0.00 | 0.00 | 1013.4 | |
| 20260901204127 | 95 | 78 | 5.0 | 11.0 | 0.00 | 0.00 | 0.00 | 1013.5 | |
| 20260901203659 | 96 | 81 | 6.0 | 10.0 | 0.00 | 0.00 | 0.00 | 1013.6 | |
| 20260901203132 | 96 | 136 | 6.0 | 10.0 | 0.00 | 0.00 | 0.00 | 1013.7 | |
| 20260901202709 | 97 | 132 | 6.0 | 10.0 | 0.00 | 0.00 | 0.00 | 1013.8 | |
| 20260901202218 | 97 | 132 | 4.0 | 7.0 | 0.00 | 0.00 | 0.00 | 1013.8 | |
| 20260901201631 | 96 | 70 | 1.0 | 12.0 | 0.00 | 0.00 | 0.00 | 1013.9 | |
| 20260901201201 | 96 | 135 | 5.0 | 12.0 | 0.00 | 0.00 | 0.00 | 1014.0 | |
| 20260901200704 | 96 | 49 | 6.0 | 9.0 | 0.00 | 0.00 | 0.00 | 1014.0 | |
| 20260901200138 | 96 | 78 | 2.0 | 10.0 | 0.00 | 0.00 | 0.00 | 1014.2 | |
| 20260901195705 | 96 | 26 | 4.0 | 10.0 | 0.00 | 0.00 | 0.00 | 1014.2 | |
| 20260901195142 | 95 | 163 | 5.0 | 10.0 | 0.00 | 0.00 | 0.00 | 1014.3 | |
| 20260901194616 | 95 | 144 | 6.0 | 10.0 | 0.00 | 0.00 | 0.00 | 1014.3 | |
| 20260901194151 | 95 | 202 | 2.0 | 11.0 | 0.00 | 0.00 | 0.00 | 1014.3 | |
| 20260901193621 | 95 | 153 | 8.0 | 11.0 | 0.00 | 0.00 | 0.00 | 1014.5 | |
| 20260901193157 | 95 | 145 | 3.0 | 11.0 | 0.00 | 0.00 | 0.00 | 1014.4 | |
| 20260901192626 | 95 | 192 | 4.0 | 9.0 | 0.00 | 0.00 | 0.00 | 1014.5 | |
| 20260901192155 | 95 | 30 | 3.0 | 11.0 | 0.00 | 0.00 | 0.00 | 1014.6 | |
| 20260901191632 | 94 | 125 | 7.0 | 11.0 | 0.00 | 0.00 | 0.00 | 1014.6 | |
| 20260901191201 | 95 | 155 | 4.0 | 10.0 | 0.00 | 0.00 | 0.00 | 1014.7 | |
| 20260901190614 | 95 | 73 | 5.0 | 9.0 | 0.00 | 0.00 | 0.00 | 1014.8 | |
| 20260901190143 | 95 | 170 | 4.0 | 7.0 | 0.00 | 0.00 | 0.00 | 1014.8 | |
| 20260901185624 | 94 | 205 | 2.0 | 10.0 | 0.00 | 0.00 | 0.00 | 1014.9 | |
| 20260901185153 | 94 | 103 | 6.0 | 9.0 | 0.00 | 0.00 | 0.00 | 1015.0 | |
| 20260901184708 | 94 | 65 | 6.0 | 9.0 | 0.00 | 0.00 | 0.00 | 1015.1 | |
| 20260901184138 | 94 | 55 | 5.0 | 10.0 | 0.00 | 0.00 | 0.00 | 1015.2 | |
| 20260901183713 | 94 | 156 | 6.0 | 10.0 | 0.00 | 0.00 | 0.00 | 1015.3 | |
| 20260901183140 | 94 | 127 | 1.0 | 10.0 | 0.00 | 0.00 | 0.00 | 1015.3 | |
| 20260901182655 | 94 | 85 | 4.0 | 9.0 | 0.00 | 0.00 | 0.00 | 1015.3 | |
| 20260901182118 | 94 | 129 | 3.0 | 11.0 | 0.00 | 0.00 | 0.00 | 1015.5 | |
| 20260901181635 | 93 | 106 | 4.0 | 12.0 | 0.00 | 0.00 | 0.00 | 1015.6 | |
| 20260901181202 | 93 | 106 | 6.0 | 12.0 | 0.00 | 0.00 | 0.00 | 1015.6 | |
| 20260901180653 | 93 | 78 | 2.0 | 9.0 | 0.00 | 0.00 | 0.00 | 1015.8 | |
| 20260901180122 | 93 | 59 | 6.0 | 9.0 | 0.00 | 0.00 | 0.00 | 1015.9 | |
| 20260901175658 | 93 | 117 | 5.0 | 10.0 | 0.00 | 0.00 | 0.00 | 1015.9 | |
| 20260901175124 | 92 | 135 | 6.0 | 13.0 | 0.00 | 0.00 | 0.00 | 1016.0 | |
| 20260901174653 | 92 | 123 | 6.0 | 13.0 | 0.00 | 0.00 | 0.00 | 1016.1 | |
| 20260901174130 | 92 | 80 | 6.0 | 9.0 | 0.00 | 0.00 | 0.00 | 1016.1 | |
| 20260901173635 | 92 | 94 | 5.0 | 10.0 | 0.00 | 0.00 | 0.00 | 1016.3 | |
| 20260901173148 | 92 | 81 | 6.0 | 12.0 | 0.00 | 0.00 | 0.00 | 1016.4 | |
| 20260901172715 | 92 | 103 | 6.0 | 12.0 | 0.00 | 0.00 | 0.00 | 1016.4 | |
| 20260901172129 | 92 | 66 | 5.0 | 8.0 | 0.00 | 0.00 | 0.00 | 1016.4 | |
| 20260901171655 | 92 | 333 | 0.0 | 10.0 | 0.00 | 0.00 | 0.00 | 1016.5 | |
| 20260901171114 | 92 | 122 | 4.0 | 11.0 | 0.00 | 0.00 | 0.00 | 1016.6 | |
| 20260901170641 | 92 | 155 | 7.0 | 11.0 | 0.00 | 0.00 | 0.00 | 1016.7 | |
| 20260901170217 | 92 | 46 | 4.0 | 10.0 | 0.00 | 0.00 | 0.00 | 1016.6 | |
| 20260901165621 | 91 | 160 | 4.0 | 7.0 | 0.00 | 0.00 | 0.00 | 1016.6 | |
| 20260901165130 | 91 | 109 | 4.0 | 7.0 | 0.00 | 0.00 | 0.00 | 1016.6 | |
| 20260901164639 | 91 | 138 | 4.0 | 10.0 | 0.00 | 0.00 | 0.00 | 1016.7 | |
| 20260901164209 | 90 | 136 | 4.0 | 10.0 | 0.00 | 0.00 | 0.00 | 1016.7 | |
| 20260901163637 | 89 | 77 | 3.0 | 8.0 | 0.00 | 0.00 | 0.00 | 1016.7 | |
| 20260901163151 | 89 | 113 | 4.0 | 11.0 | 0.00 | 0.00 | 0.00 | 1016.8 | |
| 20260901162657 | 90 | 65 | 7.0 | 11.0 | 0.00 | 0.00 | 0.00 | 1016.8 | |
| 20260901162211 | 90 | 173 | 4.0 | 7.0 | 0.00 | 0.00 | 0.00 | 1016.9 | |
| 20260901161616 | 89 | 134 | 1.0 | 10.0 | 0.00 | 0.00 | 0.00 | 1017.0 | |
| 20260901161153 | 89 | 94 | 4.0 | 10.0 | 0.00 | 0.00 | 0.00 | 1017.0 | |
| 20260901160627 | 89 | 317 | 1.0 | 6.0 | 0.00 | 0.00 | 0.00 | 1017.0 | |
| 20260901160202 | 89 | 126 | 4.0 | 8.0 | 0.00 | 0.00 | 0.00 | 1017.0 | |
| 20260901155632 | 88 | 102 | 3.0 | 8.0 | 0.00 | 0.00 | 0.00 | 1016.9 | |
| 20260901155206 | 87 | 152 | 2.0 | 6.0 | 0.00 | 0.00 | 0.00 | 1016.9 | |
| 20260901154630 | 87 | 269 | 2.0 | 7.0 | 0.00 | 0.00 | 0.00 | 1016.8 | |
| 20260901154204 | 87 | 118 | 4.0 | 8.0 | 0.00 | 0.00 | 0.00 | 1016.9 | |
| 20260901153633 | 87 | 42 | 5.0 | 8.0 | 0.00 | 0.00 | 0.00 | 1017.0 | |
| 20260901153203 | 86 | 106 | 4.0 | 7.0 | 0.00 | 0.00 | 0.00 | 1017.0 | |
| 20260901152623 | 86 | 43 | 4.0 | 6.0 | 0.00 | 0.00 | 0.00 | 1016.9 | |
| 20260901152208 | 86 | 96 | 3.0 | 6.0 | 0.00 | 0.00 | 0.00 | 1016.9 | |
| 20260901151635 | 86 | 91 | 2.0 | 6.0 | 0.00 | 0.00 | 0.00 | 1017.0 | |
| 20260901151204 | 85 | 190 | 1.0 | 5.0 | 0.00 | 0.00 | 0.00 | 1017.0 | |
| 20260901150619 | 85 | 106 | 3.0 | 5.0 | 0.00 | 0.00 | 0.00 | 1017.0 | |
| 20260901150149 | 84 | 150 | 2.0 | 5.0 | 0.00 | 0.00 | 0.00 | 1017.0 | |
| 20260901145649 | 84 | 275 | 3.0 | 5.0 | 0.00 | 0.00 | 0.00 | 1017.0 | |
| 20260901145125 | 83 | 67 | 1.0 | 5.0 | 0.00 | 0.00 | 0.00 | 1017.0 | |
| 20260901144654 | 83 | 313 | 0.0 | 5.0 | 0.00 | 0.00 | 0.00 | 1017.0 | |
| 20260901144122 | 82 | 173 | 0.0 | 5.0 | 0.00 | 0.00 | 0.00 | 1016.9 | |
| 20260901143637 | 81 | 191 | 0.0 | 4.0 | 0.00 | 0.00 | 0.00 | 1016.9 | |
| 20260901143214 | 81 | 103 | 1.0 | 4.0 | 0.00 | 0.00 | 0.00 | 1016.9 | |
| 20260901142650 | 80 | 225 | 0.0 | 6.0 | 0.00 | 0.00 | 0.00 | 1016.9 | |
| 20260901142123 | 80 | 233 | 2.0 | 6.0 | 0.00 | 0.00 | 0.00 | 1017.0 | |
| 20260901141700 | 79 | 148 | 0.0 | 2.0 | 0.00 | 0.00 | 0.00 | 1016.9 | |
| 20260901141129 | 79 | 121 | 0.0 | 0.0 | 0.00 | 0.00 | 0.00 | 1016.9 | |
| 20260901140704 | 78 | 316 | 0.0 | 0.0 | 0.00 | 0.00 | 0.00 | 1017.0 | |
| 20260901140131 | 78 | 316 | 0.0 | 0.0 | 0.00 | 0.00 | 0.00 | 1017.0 | |
| 20260901135633 | 77 | 274 | 0.0 | 0.0 | 0.00 | 0.00 | 0.00 | 1017.0 | |
| 20260901135208 | 77 | 274 | 0.0 | 0.0 | 0.00 | 0.00 | 0.00 | 1017.1 | |
| 20260901134636 | 76 | 34 | 0.0 | 0.0 | 0.00 | 0.00 | 0.00 | 1017.1 | |
| 20260901134150 | 76 | 105 | 0.0 | 0.0 | 0.00 | 0.00 | 0.00 | 1017.0 | |
| 20260901133623 | 75 | 105 | 0.0 | 0.0 | 0.00 | 0.00 | 0.00 | 1016.9 | |
| 20260901133200 | 75 | 105 | 0.0 | 0.0 | 0.00 | 0.00 | 0.00 | 1016.9 | |
| 20260901132629 | 74 | 105 | 0.0 | 0.0 | 0.00 | 0.00 | 0.00 | 1016.9 | |
| 20260901132158 | 74 | 105 | 0.0 | 0.0 | 0.00 | 0.00 | 0.00 | 1016.9 | |
| 20260901131634 | 74 | 105 | 0.0 | 0.0 | 0.00 | 0.00 | 0.00 | 1016.9 | |
| 20260901131152 | 73 | 105 | 0.0 | 0.0 | 0.00 | 0.00 | 0.00 | 1016.9 | |
| 20260901130708 | 73 | 105 | 0.0 | 0.0 | 0.00 | 0.00 | 0.00 | 1016.8 | |
| 20260901130115 | 73 | 105 | 0.0 | 0.0 | 0.00 | 0.00 | 0.00 | 1016.8 | |
| 20260901125642 | 73 | 105 | 0.0 | 0.0 | 0.00 | 0.00 | 0.00 | 1016.7 | |
| 20260901125117 | 72 | 105 | 0.0 | 0.0 | 0.00 | 0.00 | 0.00 | 1016.6 | |
| 20260901124644 | 73 | 106 | 0.0 | 0.0 | 0.00 | 0.00 | 0.00 | 1016.5 | |
| 20260901124154 | 73 | 106 | 0.0 | 0.0 | 0.00 | 0.00 | 0.00 | 1016.5 | |
| 20260901123627 | 72 | 105 | 0.0 | 1.0 | 0.00 | 0.00 | 0.00 | 1016.4 | |
| 20260901123204 | 72 | 106 | 1.0 | 1.0 | 0.00 | 0.00 | 0.00 | 1016.4 | |
| 20260901122713 | 72 | 106 | 0.0 | 1.0 | 0.00 | 0.00 | 0.00 | 1016.4 | |
| 20260901122228 | 72 | 105 | 0.0 | 1.0 | 0.00 | 0.00 | 0.00 | 1016.3 | |
| 20260901121634 | 73 | 106 | 0.0 | 1.0 | 0.00 | 0.00 | 0.00 | 1016.3 | |
| 20260901121150 | 73 | 105 | 0.0 | 4.0 | 0.00 | 0.00 | 0.00 | 1016.3 | |
| 20260901120720 | 73 | 105 | 1.0 | 4.0 | 0.00 | 0.00 | 0.00 | 1016.2 | |
| 20260901120135 | 73 | 106 | 0.0 | 0.0 | 0.00 | 0.00 | 0.00 | 1016.2 | |
| 20260901115643 | 73 | 105 | 0.0 | 0.0 | 0.00 | 0.00 | 0.00 | 1016.2 | |
| 20260901115121 | 73 | 105 | 0.0 | 0.0 | 0.00 | 0.00 | 0.00 | 1016.2 | |
| 20260901114647 | 73 | 106 | 0.0 | 0.0 | 0.00 | 0.00 | 0.00 | 1016.3 | |
| 20260901114120 | 73 | 106 | 0.0 | 0.0 | 0.00 | 0.00 | 0.00 | 1016.3 | |
| 20260901113656 | 73 | 106 | 0.0 | 0.0 | 0.00 | 0.00 | 0.00 | 1016.4 | |
| 20260901113125 | 73 | 106 | 0.0 | 0.0 | 0.00 | 0.00 | 0.00 | 1016.4 | |
| 20260901112702 | 73 | 106 | 0.0 | 0.0 | 0.00 | 0.00 | 0.00 | 1016.4 | |
| 20260901112130 | 73 | 105 | 0.0 | 0.0 | 0.00 | 0.00 | 0.00 | 1016.5 | |
| 20260901111639 | 73 | 106 | 0.0 | 0.0 | 0.00 | 0.00 | 0.00 | 1016.4 | |
| 20260901111114 | 73 | 105 | 0.0 | 0.0 | 0.00 | 0.00 | 0.00 | 1016.4 | |
| 20260901110643 | 73 | 106 | 0.0 | 0.0 | 0.00 | 0.00 | 0.00 | 1016.4 | |
| 20260901110220 | 73 | 106 | 0.0 | 0.0 | 0.00 | 0.00 | 0.00 | 1016.3 | |
| 20260901105632 | 74 | 105 | 0.0 | 0.0 | 0.00 | 0.00 | 0.00 | 1016.4 | |
| 20260901105208 | 74 | 105 | 0.0 | 0.0 | 0.00 | 0.00 | 0.00 | 1016.3 |